Time,TemperatureF,DewpointF,PressureIn,WindDirection,WindDirectionDegrees,WindSpeedMPH,WindSpeedGustMPH,Humidity,HourlyPrecipIn,Conditions,Clouds,dailyrainin,SoftwareType,DateUTC
2013-09-16 00:02:00,50.5,44.6,29.45,ENE,68,0.0,2.0,80,0.00,,,0.00,meteohub,2013-09-16 05:02:00,
2013-09-16 00:07:00,50.4,44.4,29.45,NE,45,2.0,2.0,80,0.00,,,0.00,meteohub,2013-09-16 05:07:00,
2013-09-16 00:12:00,50.4,44.8,29.45,NE,45,2.0,2.0,81,0.00,,,0.00,meteohub,2013-09-16 05:12:00,
2013-09-16 00:17:00,50.2,44.6,29.45,ENE,68,2.0,2.0,81,0.00,,,0.00,meteohub,2013-09-16 05:17:00,
2013-09-16 00:22:00,50.2,44.6,29.45,NE,45,2.0,2.0,81,0.00,,,0.00,meteohub,2013-09-16 05:22:00,
2013-09-16 00:27:00,50.0,44.4,29.45,NE,45,0.0,2.0,81,0.00,,,0.00,meteohub,2013-09-16 05:27:00,
2013-09-16 00:32:00,49.8,44.6,29.45,NE,45,0.0,3.0,82,0.00,,,0.00,meteohub,2013-09-16 05:32:00,
2013-09-16 00:37:00,49.6,44.4,29.45,NE,45,0.0,3.0,82,0.00,,,0.00,meteohub,2013-09-16 05:37:00,
2013-09-16 00:42:00,49.3,44.4,29.45,ENE,68,0.0,2.0,83,0.00,,,0.00,meteohub,2013-09-16 05:42:00,
2013-09-16 00:47:00,49.1,44.2,29.45,NE,45,0.0,0.0,83,0.00,,,0.00,meteohub,2013-09-16 05:47:00,
2013-09-16 00:52:00,49.1,44.4,29.48,NE,45,0.0,0.0,84,0.00,,,0.00,meteohub,2013-09-16 05:52:00,
2013-09-16 00:57:00,48.7,44.1,29.48,NE,45,0.0,0.0,84,0.00,,,0.00,meteohub,2013-09-16 05:57:00,
2013-09-16 01:02:00,48.6,43.9,29.48,ENE,68,0.0,0.0,84,0.00,,,0.00,meteohub,2013-09-16 06:02:00,
2013-09-16 01:07:00,48.4,43.7,29.48,ENE,68,0.0,0.0,84,0.00,,,0.00,meteohub,2013-09-16 06:07:00,
2013-09-16 01:12:00,48.4,43.7,29.48,NE,45,0.0,0.0,84,0.00,,,0.00,meteohub,2013-09-16 06:12:00,
2013-09-16 01:17:00,48.2,43.9,29.48,NE,45,0.0,0.0,85,0.00,,,0.00,meteohub,2013-09-16 06:17:00,
2013-09-16 01:22:00,48.0,44.1,29.48,NE,45,0.0,0.0,86,0.00,,,0.00,meteohub,2013-09-16 06:22:00,
2013-09-16 01:27:00,47.8,43.9,29.48,NE,45,0.0,0.0,86,0.00,,,0.00,meteohub,2013-09-16 06:27:00,
2013-09-16 01:32:00,47.8,43.9,29.48,NE,45,0.0,0.0,86,0.00,,,0.00,meteohub,2013-09-16 06:32:00,
2013-09-16 01:37:00,47.8,44.2,29.48,NE,45,0.0,0.0,87,0.00,,,0.00,meteohub,2013-09-16 06:37:00,
2013-09-16 01:42:00,47.7,44.2,29.48,NE,45,0.0,0.0,88,0.00,,,0.00,meteohub,2013-09-16 06:42:00,
2013-09-16 01:47:00,47.5,44.1,29.48,NE,45,0.0,0.0,88,0.00,,,0.00,meteohub,2013-09-16 06:47:00,
2013-09-16 01:52:00,47.5,44.1,29.48,NE,45,0.0,0.0,88,0.00,,,0.00,meteohub,2013-09-16 06:52:00,
2013-09-16 01:57:00,47.3,43.9,29.48,NE,45,0.0,0.0,88,0.00,,,0.00,meteohub,2013-09-16 06:57:00,
2013-09-16 02:02:00,47.3,43.9,29.48,NE,45,0.0,0.0,88,0.00,,,0.00,meteohub,2013-09-16 07:02:00,
2013-09-16 02:07:00,47.3,43.7,29.48,NE,45,0.0,0.0,87,0.00,,,0.00,meteohub,2013-09-16 07:07:00,
2013-09-16 02:12:00,47.1,43.5,29.48,NE,45,0.0,0.0,87,0.00,,,0.00,meteohub,2013-09-16 07:12:00,
2013-09-16 02:17:00,46.9,43.0,29.48,NE,45,0.0,0.0,86,0.00,,,0.00,meteohub,2013-09-16 07:17:00,
2013-09-16 02:22:00,46.8,42.8,29.48,NE,45,0.0,0.0,86,0.00,,,0.00,meteohub,2013-09-16 07:22:00,
2013-09-16 02:27:00,46.8,42.8,29.48,NE,45,0.0,0.0,86,0.00,,,0.00,meteohub,2013-09-16 07:27:00,
2013-09-16 02:32:00,46.6,42.6,29.48,NE,45,0.0,1.0,86,0.00,,,0.00,meteohub,2013-09-16 07:32:00,
2013-09-16 02:37:00,46.4,42.4,29.48,NE,45,0.0,1.0,86,0.00,,,0.00,meteohub,2013-09-16 07:37:00,
2013-09-16 02:42:00,46.2,42.3,29.48,NE,45,0.0,1.0,86,0.00,,,0.00,meteohub,2013-09-16 07:42:00,
2013-09-16 02:47:00,45.9,42.3,29.48,NE,45,0.0,0.0,87,0.00,,,0.00,meteohub,2013-09-16 07:47:00,
2013-09-16 02:52:00,45.9,42.3,29.48,NE,45,0.0,0.0,87,0.00,,,0.00,meteohub,2013-09-16 07:52:00,
2013-09-16 02:57:00,45.7,42.1,29.48,NE,45,0.0,0.0,87,0.00,,,0.00,meteohub,2013-09-16 07:57:00,
2013-09-16 03:02:00,45.5,42.1,29.48,NE,45,2.0,2.0,88,0.00,,,0.00,meteohub,2013-09-16 08:02:00,
2013-09-16 03:07:00,45.5,42.1,29.48,NE,45,1.0,2.0,88,0.00,,,0.00,meteohub,2013-09-16 08:07:00,
2013-09-16 03:12:00,45.5,42.1,29.48,NE,45,0.0,2.0,88,0.00,,,0.00,meteohub,2013-09-16 08:12:00,
2013-09-16 03:17:00,45.3,42.3,29.48,NE,45,0.0,2.0,89,0.00,,,0.00,meteohub,2013-09-16 08:17:00,
2013-09-16 03:22:00,45.5,42.4,29.48,NE,45,0.0,2.0,89,0.00,,,0.00,meteohub,2013-09-16 08:22:00,
2013-09-16 03:27:00,45.3,42.3,29.48,NE,45,0.0,0.0,89,0.00,,,0.00,meteohub,2013-09-16 08:27:00,
2013-09-16 03:32:00,45.3,42.3,29.48,ENE,68,0.0,0.0,89,0.00,,,0.00,meteohub,2013-09-16 08:32:00,
2013-09-16 03:37:00,45.1,42.1,29.48,NE,45,0.0,0.0,89,0.00,,,0.00,meteohub,2013-09-16 08:37:00,
2013-09-16 03:42:00,45.1,42.1,29.48,NE,45,0.0,0.0,89,0.00,,,0.00,meteohub,2013-09-16 08:42:00,
2013-09-16 03:47:00,45.0,41.9,29.48,NE,45,0.0,0.0,89,0.00,,,0.00,meteohub,2013-09-16 08:47:00,
2013-09-16 03:52:00,45.0,41.9,29.48,NE,45,0.0,0.0,89,0.00,,,0.00,meteohub,2013-09-16 08:52:00,
2013-09-16 03:57:00,44.6,41.5,29.48,NE,45,0.0,0.0,89,0.00,,,0.00,meteohub,2013-09-16 08:57:00,
2013-09-16 04:02:00,44.6,41.5,29.48,NE,45,0.0,0.0,89,0.00,,,0.00,meteohub,2013-09-16 09:02:00,
2013-09-16 04:07:00,44.4,41.7,29.48,NE,45,0.0,0.0,90,0.00,,,0.00,meteohub,2013-09-16 09:07:00,
2013-09-16 04:12:00,44.2,41.5,29.48,NE,45,0.0,0.0,90,0.00,,,0.00,meteohub,2013-09-16 09:12:00,
2013-09-16 04:17:00,44.2,41.5,29.48,NE,45,0.0,0.0,90,0.00,,,0.00,meteohub,2013-09-16 09:17:00,
2013-09-16 04:22:00,44.2,41.5,29.48,NE,45,0.0,0.0,90,0.00,,,0.00,meteohub,2013-09-16 09:22:00,
2013-09-16 04:27:00,44.1,41.4,29.48,NE,45,0.0,0.0,90,0.00,,,0.00,meteohub,2013-09-16 09:27:00,
2013-09-16 04:32:00,43.7,41.0,29.48,NE,45,0.0,0.0,90,0.00,,,0.00,meteohub,2013-09-16 09:32:00,
2013-09-16 04:37:00,43.7,41.2,29.51,NE,45,0.0,0.0,91,0.00,,,0.00,meteohub,2013-09-16 09:37:00,
2013-09-16 04:42:00,43.7,41.2,29.51,NE,45,0.0,0.0,91,0.00,,,0.00,meteohub,2013-09-16 09:42:00,
2013-09-16 04:47:00,43.5,41.0,29.51,NE,45,0.0,0.0,91,0.00,,,0.00,meteohub,2013-09-16 09:47:00,
2013-09-16 04:52:00,43.5,41.0,29.51,ENE,68,0.0,0.0,91,0.00,,,0.00,meteohub,2013-09-16 09:52:00,
2013-09-16 04:57:00,43.5,41.4,29.51,NE,45,0.0,0.0,92,0.00,,,0.00,meteohub,2013-09-16 09:57:00,
2013-09-16 05:02:00,43.5,41.4,29.51,NE,45,0.0,0.0,92,0.00,,,0.00,meteohub,2013-09-16 10:02:00,
2013-09-16 05:07:00,43.5,41.4,29.48,NE,45,0.0,0.0,92,0.00,,,0.00,meteohub,2013-09-16 10:07:00,
2013-09-16 05:12:00,43.5,41.4,29.48,NE,45,0.0,0.0,92,0.00,,,0.00,meteohub,2013-09-16 10:12:00,
2013-09-16 05:17:00,43.5,41.4,29.48,NE,45,0.0,0.0,92,0.00,,,0.00,meteohub,2013-09-16 10:17:00,
2013-09-16 05:22:00,43.3,41.2,29.51,ENE,68,0.0,0.0,92,0.00,,,0.00,meteohub,2013-09-16 10:22:00,
2013-09-16 05:27:00,43.2,41.0,29.51,ENE,68,0.0,0.0,92,0.00,,,0.00,meteohub,2013-09-16 10:27:00,
2013-09-16 05:32:00,42.8,40.6,29.51,ENE,68,0.0,0.0,92,0.00,,,0.00,meteohub,2013-09-16 10:32:00,
2013-09-16 05:37:00,42.6,40.5,29.51,ENE,68,0.0,0.0,92,0.00,,,0.00,meteohub,2013-09-16 10:37:00,
2013-09-16 05:42:00,42.1,39.6,29.51,ENE,68,0.0,0.0,91,0.00,,,0.00,meteohub,2013-09-16 10:42:00,
2013-09-16 05:47:00,41.9,39.7,29.51,NE,45,0.0,0.0,92,0.00,,,0.00,meteohub,2013-09-16 10:47:00,
2013-09-16 05:53:00,41.9,39.7,29.51,NE,45,0.0,0.0,92,0.00,,,0.00,meteohub,2013-09-16 10:53:00,
2013-09-16 05:58:00,42.1,40.3,29.51,ENE,68,0.0,0.0,93,0.00,,,0.00,meteohub,2013-09-16 10:58:00,
2013-09-16 06:03:00,42.1,40.3,29.51,NE,45,0.0,0.0,93,0.00,,,0.00,meteohub,2013-09-16 11:03:00,
2013-09-16 06:08:00,42.3,40.6,29.51,ENE,68,0.0,0.0,94,0.00,,,0.00,meteohub,2013-09-16 11:08:00,
2013-09-16 06:13:00,42.3,40.6,29.51,NE,45,0.0,0.0,94,0.00,,,0.00,meteohub,2013-09-16 11:13:00,
2013-09-16 06:18:00,42.4,41.2,29.51,NE,45,0.0,0.0,95,0.00,,,0.00,meteohub,2013-09-16 11:18:00,
2013-09-16 06:23:00,42.4,41.2,29.51,NE,45,0.0,0.0,95,0.00,,,0.00,meteohub,2013-09-16 11:23:00,
2013-09-16 06:28:00,42.4,41.2,29.51,NE,45,0.0,0.0,95,0.00,,,0.00,meteohub,2013-09-16 11:28:00,
2013-09-16 06:34:00,42.6,41.4,29.51,ENE,68,0.0,0.0,95,0.00,,,0.00,meteohub,2013-09-16 11:34:00,
2013-09-16 06:39:00,42.8,41.5,29.48,ENE,68,0.0,0.0,95,0.00,,,0.00,meteohub,2013-09-16 11:39:00,
2013-09-16 06:44:00,43.0,41.7,29.48,NE,45,0.0,0.0,95,0.00,,,0.00,meteohub,2013-09-16 11:44:00,
2013-09-16 06:49:00,43.0,41.7,29.51,NE,45,0.0,0.0,95,0.00,,,0.00,meteohub,2013-09-16 11:49:00,
2013-09-16 06:54:00,43.0,41.7,29.51,NE,45,0.0,0.0,95,0.00,,,0.00,meteohub,2013-09-16 11:54:00,
2013-09-16 06:59:00,43.0,41.4,29.51,NE,45,0.0,0.0,94,0.00,,,0.00,meteohub,2013-09-16 11:59:00,
2013-09-16 07:04:00,43.0,41.4,29.51,NE,45,0.0,0.0,94,0.00,,,0.00,meteohub,2013-09-16 12:04:00,
2013-09-16 07:09:00,43.0,41.4,29.51,NE,45,0.0,0.0,94,0.00,,,0.00,meteohub,2013-09-16 12:09:00,
2013-09-16 07:15:00,42.8,41.2,29.51,NE,45,0.0,0.0,94,0.00,,,0.00,meteohub,2013-09-16 12:15:00,
2013-09-16 07:20:00,43.0,41.4,29.48,ENE,68,0.0,0.0,94,0.00,,,0.00,meteohub,2013-09-16 12:20:00,
2013-09-16 07:25:00,43.2,41.5,29.48,ENE,68,0.0,0.0,94,0.00,,,0.00,meteohub,2013-09-16 12:25:00,
2013-09-16 07:30:00,43.3,42.1,29.48,ENE,68,0.0,0.0,95,0.00,,,0.00,meteohub,2013-09-16 12:30:00,
2013-09-16 07:35:00,43.3,42.1,29.51,NE,45,0.0,0.0,95,0.00,,,0.00,meteohub,2013-09-16 12:35:00,
2013-09-16 07:40:00,43.7,42.4,29.51,ENE,68,0.0,0.0,95,0.00,,,0.00,meteohub,2013-09-16 12:40:00,
2013-09-16 07:45:00,44.1,42.8,29.51,ENE,68,0.0,0.0,95,0.00,,,0.00,meteohub,2013-09-16 12:45:00,
2013-09-16 07:50:00,44.2,43.0,29.51,NE,45,0.0,0.0,95,0.00,,,0.00,meteohub,2013-09-16 12:50:00,
2013-09-16 07:56:00,44.6,42.6,29.51,NE,45,3.0,0.0,93,0.00,,,0.00,meteohub,2013-09-16 12:56:00,
2013-09-16 08:01:00,44.8,42.6,29.51,ENE,68,3.0,3.0,92,0.00,,,0.00,meteohub,2013-09-16 13:01:00,
2013-09-16 08:06:00,45.3,42.8,29.51,East,90,4.0,4.0,91,0.00,,,0.00,meteohub,2013-09-16 13:06:00,
2013-09-16 08:11:00,45.3,42.6,29.51,NE,45,2.0,4.0,90,0.00,,,0.00,meteohub,2013-09-16 13:11:00,
2013-09-16 08:16:00,45.5,42.8,29.51,ENE,68,3.0,4.0,90,0.00,,,0.00,meteohub,2013-09-16 13:16:00,
2013-09-16 08:21:00,45.9,43.2,29.51,NE,45,3.0,4.0,90,0.00,,,0.00,meteohub,2013-09-16 13:21:00,
2013-09-16 08:26:00,45.9,42.8,29.51,NE,45,0.0,3.0,89,0.00,,,0.00,meteohub,2013-09-16 13:26:00,
2013-09-16 08:31:00,46.0,43.0,29.51,East,90,1.0,3.0,89,0.00,,,0.00,meteohub,2013-09-16 13:31:00,
2013-09-16 08:37:00,46.2,43.5,29.51,East,90,2.0,4.0,90,0.00,,,0.00,meteohub,2013-09-16 13:37:00,
2013-09-16 08:42:00,46.6,43.5,29.51,South,180,0.0,4.0,89,0.00,,,0.00,meteohub,2013-09-16 13:42:00,
2013-09-16 08:47:00,46.8,44.1,29.51,NE,45,0.0,4.0,90,0.00,,,0.00,meteohub,2013-09-16 13:47:00,
2013-09-16 08:52:00,46.9,43.9,29.51,ENE,68,1.0,3.0,89,0.00,,,0.00,meteohub,2013-09-16 13:52:00,
2013-09-16 08:57:00,47.3,43.9,29.51,ENE,68,0.0,2.0,88,0.00,,,0.00,meteohub,2013-09-16 13:57:00,
2013-09-16 09:02:00,47.3,43.9,29.51,NE,45,2.0,3.0,88,0.00,,,0.00,meteohub,2013-09-16 14:02:00,
2013-09-16 09:07:00,47.5,43.5,29.51,NE,45,2.0,3.0,86,0.00,,,0.00,meteohub,2013-09-16 14:07:00,
2013-09-16 09:12:00,47.8,43.9,29.51,ENE,68,1.0,3.0,86,0.00,,,0.00,meteohub,2013-09-16 14:12:00,
2013-09-16 09:17:00,48.2,43.9,29.51,ENE,68,3.0,3.0,85,0.00,,,0.00,meteohub,2013-09-16 14:17:00,
2013-09-16 09:22:00,48.6,43.7,29.51,NE,45,2.0,3.0,83,0.00,,,0.00,meteohub,2013-09-16 14:22:00,
2013-09-16 09:27:00,48.7,43.9,29.51,NE,45,3.0,3.0,83,0.00,,,0.00,meteohub,2013-09-16 14:27:00,
2013-09-16 09:32:00,49.1,43.9,29.51,SSE,158,3.0,3.0,82,0.00,,,0.00,meteohub,2013-09-16 14:32:00,
2013-09-16 09:37:00,49.3,44.1,29.51,ESE,112,3.0,5.0,82,0.00,,,0.00,meteohub,2013-09-16 14:37:00,
2013-09-16 09:42:00,49.5,44.6,29.51,ENE,68,0.0,5.0,83,0.00,,,0.00,meteohub,2013-09-16 14:42:00,
2013-09-16 09:47:00,49.8,44.6,29.51,NE,45,0.0,5.0,82,0.00,,,0.00,meteohub,2013-09-16 14:47:00,
2013-09-16 09:52:00,50.2,45.0,29.51,South,180,0.0,4.0,82,0.00,,,0.00,meteohub,2013-09-16 14:52:00,
2013-09-16 09:57:00,50.7,45.1,29.51,NE,45,2.0,4.0,81,0.00,,,0.00,meteohub,2013-09-16 14:57:00,
2013-09-16 10:02:00,50.9,45.0,29.51,SW,225,0.0,4.0,80,0.00,,,0.00,meteohub,2013-09-16 15:02:00,
2013-09-16 10:07:00,51.1,44.4,29.51,ENE,68,2.0,7.0,78,0.00,,,0.00,meteohub,2013-09-16 15:07:00,
2013-09-16 10:12:00,51.4,44.8,29.51,ENE,68,4.0,7.0,78,0.00,,,0.00,meteohub,2013-09-16 15:12:00,
2013-09-16 10:17:00,51.6,43.9,29.51,SSE,158,5.0,7.0,75,0.00,,,0.00,meteohub,2013-09-16 15:17:00,
2013-09-16 10:22:00,52.5,44.4,29.54,NW,315,1.0,5.0,74,0.00,,,0.00,meteohub,2013-09-16 15:22:00,
2013-09-16 10:27:00,52.7,43.5,29.54,SSE,158,4.0,5.0,71,0.00,,,0.00,meteohub,2013-09-16 15:27:00,
2013-09-16 10:32:00,53.1,43.9,29.54,ENE,68,2.0,6.0,71,0.00,,,0.00,meteohub,2013-09-16 15:32:00,
2013-09-16 10:34:00,53.2,44.1,29.54,East,90,1.0,6.0,71,0.00,,,0.00,meteohub,2013-09-16 15:34:00,
2013-09-16 10:39:00,54.0,44.8,29.54,ENE,68,0.0,6.0,71,0.00,,,0.00,meteohub,2013-09-16 15:39:00,
2013-09-16 10:44:00,54.1,44.6,29.54,SSW,202,2.0,4.0,70,0.00,,,0.00,meteohub,2013-09-16 15:44:00,
2013-09-16 10:49:00,54.3,43.7,29.54,South,180,0.0,4.0,67,0.00,,,0.00,meteohub,2013-09-16 15:49:00,
2013-09-16 10:54:00,55.0,44.6,29.54,SE,135,2.0,4.0,68,0.00,,,0.00,meteohub,2013-09-16 15:54:00,
2013-09-16 10:59:00,55.6,43.7,29.54,SSE,158,3.0,4.0,64,0.00,,,0.00,meteohub,2013-09-16 15:59:00,
2013-09-16 11:04:00,55.6,42.8,29.51,SSW,202,6.0,6.0,62,0.00,,,0.00,meteohub,2013-09-16 16:04:00,
2013-09-16 11:10:00,56.1,43.7,29.51,SW,225,3.0,9.0,63,0.00,,,0.00,meteohub,2013-09-16 16:10:00,
2013-09-16 11:15:00,56.7,43.3,29.51,SSE,158,3.0,9.0,61,0.00,,,0.00,meteohub,2013-09-16 16:15:00,
2013-09-16 11:20:00,56.7,43.3,29.51,South,180,4.0,9.0,61,0.00,,,0.00,meteohub,2013-09-16 16:20:00,
2013-09-16 11:25:00,56.8,44.1,29.51,NNE,22,0.0,9.0,62,0.00,,,0.00,meteohub,2013-09-16 16:25:00,
2013-09-16 11:30:00,57.4,43.2,29.51,ENE,68,0.0,9.0,59,0.00,,,0.00,meteohub,2013-09-16 16:30:00,
2013-09-16 11:35:00,57.6,44.2,29.51,SE,135,0.0,6.0,61,0.00,,,0.00,meteohub,2013-09-16 16:35:00,
2013-09-16 11:40:00,58.8,44.1,29.51,ESE,112,2.0,5.0,58,0.00,,,0.00,meteohub,2013-09-16 16:40:00,
2013-09-16 11:45:00,59.7,44.4,29.51,SSE,158,6.0,6.0,57,0.00,,,0.00,meteohub,2013-09-16 16:45:00,
2013-09-16 11:51:00,60.6,44.4,29.51,NE,45,4.0,6.0,55,0.00,,,0.00,meteohub,2013-09-16 16:51:00,
2013-09-16 11:56:00,61.0,44.8,29.51,ENE,68,2.0,6.0,55,0.00,,,0.00,meteohub,2013-09-16 16:56:00,
2013-09-16 12:01:00,61.9,44.1,29.51,ENE,68,2.0,6.0,52,0.00,,,0.00,meteohub,2013-09-16 17:01:00,
2013-09-16 12:06:00,62.2,44.4,29.51,NE,45,2.0,6.0,52,0.00,,,0.00,meteohub,2013-09-16 17:06:00,
2013-09-16 12:11:00,62.6,44.2,29.51,ENE,68,1.0,6.0,51,0.00,,,0.00,meteohub,2013-09-16 17:11:00,
2013-09-16 12:16:00,63.3,44.4,29.51,ENE,68,4.0,6.0,50,0.00,,,0.00,meteohub,2013-09-16 17:16:00,
2013-09-16 12:21:00,63.1,44.2,29.51,ENE,68,2.0,5.0,50,0.00,,,0.00,meteohub,2013-09-16 17:21:00,
2013-09-16 12:26:00,63.1,43.7,29.51,SSE,158,2.0,4.0,49,0.00,,,0.00,meteohub,2013-09-16 17:26:00,
2013-09-16 12:31:00,63.3,44.4,29.51,SE,135,2.0,4.0,50,0.00,,,0.00,meteohub,2013-09-16 17:31:00,
2013-09-16 12:37:00,64.4,44.8,29.51,NE,45,3.0,4.0,49,0.00,,,0.00,meteohub,2013-09-16 17:37:00,
2013-09-16 12:42:00,65.1,45.5,29.51,ESE,112,1.0,4.0,49,0.00,,,0.00,meteohub,2013-09-16 17:42:00,
2013-09-16 12:47:00,65.1,44.4,29.51,ESE,112,3.0,4.0,47,0.00,,,0.00,meteohub,2013-09-16 17:47:00,
2013-09-16 12:52:00,65.3,45.1,29.51,NE,45,2.0,6.0,48,0.00,,,0.00,meteohub,2013-09-16 17:52:00,
2013-09-16 12:57:00,65.7,45.0,29.51,ENE,68,2.0,6.0,47,0.00,,,0.00,meteohub,2013-09-16 17:57:00,
2013-09-16 13:02:00,65.8,45.1,29.51,SSE,158,6.0,6.0,47,0.00,,,0.00,meteohub,2013-09-16 18:02:00,
2013-09-16 13:07:00,66.4,45.0,29.48,SSE,158,2.0,6.0,46,0.00,,,0.00,meteohub,2013-09-16 18:07:00,
2013-09-16 13:12:00,67.5,46.6,29.48,SE,135,0.0,6.0,47,0.00,,,0.00,meteohub,2013-09-16 18:12:00,
2013-09-16 13:17:00,67.8,46.9,29.48,SSE,158,2.0,6.0,47,0.00,,,0.00,meteohub,2013-09-16 18:17:00,
2013-09-16 13:22:00,68.7,47.7,29.51,East,90,1.0,4.0,47,0.00,,,0.00,meteohub,2013-09-16 18:22:00,
2013-09-16 13:27:00,68.9,47.3,29.51,East,90,1.0,5.0,46,0.00,,,0.00,meteohub,2013-09-16 18:27:00,
2013-09-16 13:32:00,69.6,48.0,29.51,ENE,68,1.0,5.0,46,0.00,,,0.00,meteohub,2013-09-16 18:32:00,
2013-09-16 13:37:00,68.4,45.7,29.51,NW,315,0.0,5.0,44,0.00,,,0.00,meteohub,2013-09-16 18:37:00,
2013-09-16 13:42:00,69.3,47.1,29.51,South,180,6.0,6.0,45,0.00,,,0.00,meteohub,2013-09-16 18:42:00,
2013-09-16 13:47:00,69.4,46.0,29.51,SSW,202,6.0,6.0,43,0.00,,,0.00,meteohub,2013-09-16 18:47:00,
2013-09-16 13:52:00,69.4,46.0,29.51,ENE,68,0.0,6.0,43,0.00,,,0.00,meteohub,2013-09-16 18:52:00,
2013-09-16 13:57:00,69.3,44.6,29.51,SE,135,4.0,6.0,41,0.00,,,0.00,meteohub,2013-09-16 18:57:00,
2013-09-16 14:02:00,69.3,43.9,29.51,SE,135,3.0,6.0,40,0.00,,,0.00,meteohub,2013-09-16 19:02:00,
2013-09-16 14:07:00,69.6,45.5,29.48,SSE,158,2.0,8.0,42,0.00,,,0.00,meteohub,2013-09-16 19:07:00,
2013-09-16 14:12:00,69.6,45.5,29.48,South,180,3.0,8.0,42,0.00,,,0.00,meteohub,2013-09-16 19:12:00,
2013-09-16 14:17:00,70.0,45.1,29.48,ESE,112,0.0,5.0,41,0.00,,,0.00,meteohub,2013-09-16 19:17:00,
2013-09-16 14:22:00,70.0,45.1,29.48,ENE,68,3.0,5.0,41,0.00,,,0.00,meteohub,2013-09-16 19:22:00,
2013-09-16 14:27:00,71.2,46.9,29.48,East,90,0.0,5.0,42,0.00,,,0.00,meteohub,2013-09-16 19:27:00,
2013-09-16 14:32:00,71.6,46.0,29.48,SSE,158,4.0,5.0,40,0.00,,,0.00,meteohub,2013-09-16 19:32:00,
2013-09-16 14:37:00,70.9,46.0,29.48,SSW,202,1.0,6.0,41,0.00,,,0.00,meteohub,2013-09-16 19:37:00,
2013-09-16 14:42:00,71.1,45.5,29.48,East,90,2.0,6.0,40,0.00,,,0.00,meteohub,2013-09-16 19:42:00,
2013-09-16 14:47:00,71.2,46.4,29.48,West,270,2.0,8.0,41,0.00,,,0.00,meteohub,2013-09-16 19:47:00,
2013-09-16 14:52:00,71.2,46.4,29.48,SSE,158,3.0,8.0,41,0.00,,,0.00,meteohub,2013-09-16 19:52:00,
2013-09-16 14:57:00,71.2,45.7,29.48,SSE,158,6.0,6.0,40,0.00,,,0.00,meteohub,2013-09-16 19:57:00,
2013-09-16 15:02:00,71.1,45.5,29.48,SSE,158,0.0,8.0,40,0.00,,,0.00,meteohub,2013-09-16 20:02:00,
2013-09-16 15:07:00,71.6,44.6,29.48,SSE,158,4.0,8.0,38,0.00,,,0.00,meteohub,2013-09-16 20:07:00,
2013-09-16 15:12:00,72.0,45.7,29.48,East,90,0.0,8.0,39,0.00,,,0.00,meteohub,2013-09-16 20:12:00,
2013-09-16 15:17:00,72.0,45.0,29.48,ENE,68,0.0,8.0,38,0.00,,,0.00,meteohub,2013-09-16 20:17:00,
2013-09-16 15:22:00,71.6,44.6,29.45,ENE,68,2.0,8.0,38,0.00,,,0.00,meteohub,2013-09-16 20:22:00,
2013-09-16 15:27:00,72.3,46.0,29.45,NNE,22,2.0,4.0,39,0.00,,,0.00,meteohub,2013-09-16 20:27:00,
2013-09-16 15:32:00,72.9,46.4,29.45,SSE,158,3.0,4.0,39,0.00,,,0.00,meteohub,2013-09-16 20:32:00,
2013-09-16 15:37:00,72.9,46.4,29.45,SE,135,0.0,4.0,39,0.00,,,0.00,meteohub,2013-09-16 20:37:00,
2013-09-16 15:42:00,72.3,45.3,29.45,SSE,158,0.0,4.0,38,0.00,,,0.00,meteohub,2013-09-16 20:42:00,
2013-09-16 15:47:00,73.2,46.8,29.45,East,90,2.0,4.0,39,0.00,,,0.00,meteohub,2013-09-16 20:47:00,
2013-09-16 15:52:00,73.6,46.4,29.42,SSE,158,2.0,3.0,38,0.00,,,0.00,meteohub,2013-09-16 20:52:00,
2013-09-16 15:57:00,72.9,45.1,29.42,East,90,3.0,3.0,37,0.00,,,0.00,meteohub,2013-09-16 20:57:00,
2013-09-16 16:02:00,72.5,44.8,29.42,SSE,158,2.0,8.0,37,0.00,,,0.00,meteohub,2013-09-16 21:02:00,
2013-09-16 16:07:00,73.0,45.3,29.42,SSE,158,3.0,8.0,37,0.00,,,0.00,meteohub,2013-09-16 21:07:00,
2013-09-16 16:12:00,72.7,44.2,29.42,SSE,158,4.0,8.0,36,0.00,,,0.00,meteohub,2013-09-16 21:12:00,
2013-09-16 16:17:00,72.5,44.1,29.42,South,180,0.0,5.0,36,0.00,,,0.00,meteohub,2013-09-16 21:17:00,
2013-09-16 16:22:00,73.2,45.3,29.45,SSE,158,3.0,5.0,37,0.00,,,0.00,meteohub,2013-09-16 21:22:00,
2013-09-16 16:27:00,72.5,44.8,29.45,SSE,158,0.0,5.0,37,0.00,,,0.00,meteohub,2013-09-16 21:27:00,
2013-09-16 16:32:00,72.3,44.6,29.45,SSE,158,2.0,5.0,37,0.00,,,0.00,meteohub,2013-09-16 21:32:00,
2013-09-16 16:37:00,73.2,44.6,29.45,NNW,338,1.0,5.0,36,0.00,,,0.00,meteohub,2013-09-16 21:37:00,
2013-09-16 16:42:00,72.5,44.1,29.45,SSE,158,3.0,5.0,36,0.00,,,0.00,meteohub,2013-09-16 21:42:00,
2013-09-16 16:47:00,72.0,43.5,29.45,SSE,158,6.0,6.0,36,0.00,,,0.00,meteohub,2013-09-16 21:47:00,
2013-09-16 16:52:00,72.5,44.1,29.42,SSE,158,3.0,6.0,36,0.00,,,0.00,meteohub,2013-09-16 21:52:00,
2013-09-16 16:57:00,72.7,44.2,29.42,SSE,158,0.0,6.0,36,0.00,,,0.00,meteohub,2013-09-16 21:57:00,
2013-09-16 17:02:00,73.0,45.3,29.42,ESE,112,2.0,6.0,37,0.00,,,0.00,meteohub,2013-09-16 22:02:00,
2013-09-16 17:07:00,72.7,45.0,29.42,ENE,68,2.0,6.0,37,0.00,,,0.00,meteohub,2013-09-16 22:07:00,
2013-09-16 17:12:00,72.3,43.9,29.42,SSE,158,1.0,4.0,36,0.00,,,0.00,meteohub,2013-09-16 22:12:00,
2013-09-16 17:17:00,72.9,45.1,29.42,SSE,158,1.0,4.0,37,0.00,,,0.00,meteohub,2013-09-16 22:17:00,
2013-09-16 17:22:00,72.7,45.0,29.39,ENE,68,1.0,4.0,37,0.00,,,0.00,meteohub,2013-09-16 22:22:00,
2013-09-16 17:27:00,73.0,45.3,29.39,SSE,158,0.0,2.0,37,0.00,,,0.00,meteohub,2013-09-16 22:27:00,
2013-09-16 17:32:00,73.4,45.5,29.39,ENE,68,0.0,2.0,37,0.00,,,0.00,meteohub,2013-09-16 22:32:00,
2013-09-16 17:37:00,72.3,44.6,29.42,SSE,158,3.0,3.0,37,0.00,,,0.00,meteohub,2013-09-16 22:37:00,
2013-09-16 17:42:00,72.1,44.4,29.42,SSE,158,3.0,3.0,37,0.00,,,0.00,meteohub,2013-09-16 22:42:00,
2013-09-16 17:47:00,72.9,45.1,29.42,South,180,0.0,3.0,37,0.00,,,0.00,meteohub,2013-09-16 22:47:00,
2013-09-16 17:52:00,70.9,44.1,29.39,South,180,0.0,3.0,38,0.00,,,0.00,meteohub,2013-09-16 22:52:00,
2013-09-16 17:57:00,68.5,41.9,29.39,SE,135,2.0,3.0,38,0.00,,,0.00,meteohub,2013-09-16 22:57:00,
2013-09-16 18:02:00,67.5,41.7,29.39,SSE,158,4.0,4.0,39,0.00,,,0.00,meteohub,2013-09-16 23:02:00,
2013-09-16 18:07:00,66.6,41.5,29.39,SSE,158,4.0,4.0,40,0.00,,,0.00,meteohub,2013-09-16 23:07:00,
2013-09-16 18:12:00,66.0,41.7,29.39,SSE,158,6.0,6.0,41,0.00,,,0.00,meteohub,2013-09-16 23:12:00,
2013-09-16 18:17:00,65.7,41.4,29.39,SSE,158,3.0,6.0,41,0.00,,,0.00,meteohub,2013-09-16 23:17:00,
2013-09-16 18:22:00,65.3,41.7,29.39,SSE,158,1.0,6.0,42,0.00,,,0.00,meteohub,2013-09-16 23:22:00,
2013-09-16 18:27:00,64.9,41.4,29.39,South,180,3.0,6.0,42,0.00,,,0.00,meteohub,2013-09-16 23:27:00,
2013-09-16 18:32:00,64.6,41.5,29.39,South,180,0.0,5.0,43,0.00,,,0.00,meteohub,2013-09-16 23:32:00,
2013-09-16 18:37:00,64.2,41.9,29.39,SE,135,4.0,5.0,44,0.00,,,0.00,meteohub,2013-09-16 23:37:00,
2013-09-16 18:42:00,63.7,41.4,29.39,SE,135,0.0,5.0,44,0.00,,,0.00,meteohub,2013-09-16 23:42:00,
2013-09-16 18:47:00,63.1,41.5,29.39,SSE,158,3.0,5.0,45,0.00,,,0.00,meteohub,2013-09-16 23:47:00,
2013-09-16 18:52:00,63.1,42.1,29.36,ENE,68,0.0,4.0,46,0.00,,,0.00,meteohub,2013-09-16 23:52:00,
2013-09-16 18:57:00,62.8,42.3,29.36,ENE,68,0.0,3.0,47,0.00,,,0.00,meteohub,2013-09-16 23:57:00,
2013-09-16 19:02:00,62.2,41.7,29.36,East,90,0.0,3.0,47,0.00,,,0.00,meteohub,2013-09-17 00:02:00,
2013-09-16 19:07:00,61.7,41.4,29.39,East,90,0.0,0.0,47,0.00,,,0.00,meteohub,2013-09-17 00:07:00,
2013-09-16 19:12:00,61.3,41.5,29.39,East,90,0.0,0.0,48,0.00,,,0.00,meteohub,2013-09-17 00:12:00,
2013-09-16 19:17:00,61.0,41.2,29.39,East,90,0.0,0.0,48,0.00,,,0.00,meteohub,2013-09-17 00:17:00,
2013-09-16 19:22:00,60.6,40.8,29.39,East,90,0.0,0.0,48,0.00,,,0.00,meteohub,2013-09-17 00:22:00,
2013-09-16 19:27:00,60.1,40.8,29.39,ENE,68,0.0,0.0,49,0.00,,,0.00,meteohub,2013-09-17 00:27:00,
2013-09-16 19:32:00,60.1,41.4,29.39,ENE,68,0.0,0.0,50,0.00,,,0.00,meteohub,2013-09-17 00:32:00,
2013-09-16 19:37:00,59.9,41.2,29.39,ENE,68,0.0,0.0,50,0.00,,,0.00,meteohub,2013-09-17 00:37:00,
2013-09-16 19:42:00,59.4,41.7,29.39,East,90,0.0,0.0,52,0.00,,,0.00,meteohub,2013-09-17 00:42:00,
2013-09-16 19:47:00,59.4,41.7,29.39,East,90,0.0,0.0,52,0.00,,,0.00,meteohub,2013-09-17 00:47:00,
2013-09-16 19:52:00,59.2,42.1,29.39,East,90,0.0,0.0,53,0.00,,,0.00,meteohub,2013-09-17 00:52:00,
2013-09-16 19:57:00,58.8,41.7,29.39,SSE,158,0.0,0.0,53,0.00,,,0.00,meteohub,2013-09-17 00:57:00,
2013-09-16 20:02:00,58.5,42.4,29.39,SSE,158,1.0,0.0,55,0.00,,,0.00,meteohub,2013-09-17 01:02:00,
2013-09-16 20:07:00,58.1,42.4,29.39,SSE,158,1.0,1.0,56,0.00,,,0.00,meteohub,2013-09-17 01:07:00,
2013-09-16 20:12:00,57.9,42.3,29.39,SSE,158,1.0,1.0,56,0.00,,,0.00,meteohub,2013-09-17 01:12:00,
2013-09-16 20:17:00,57.7,42.3,29.39,SSE,158,0.0,1.0,56,0.00,,,0.00,meteohub,2013-09-17 01:17:00,
2013-09-16 20:22:00,57.4,41.9,29.39,SSE,158,0.0,1.0,56,0.00,,,0.00,meteohub,2013-09-17 01:22:00,
2013-09-16 20:27:00,57.0,41.9,29.39,SSE,158,0.0,0.0,57,0.00,,,0.00,meteohub,2013-09-17 01:27:00,
2013-09-16 20:32:00,56.8,42.3,29.39,SSE,158,0.0,0.0,58,0.00,,,0.00,meteohub,2013-09-17 01:32:00,
2013-09-16 20:37:00,56.7,42.1,29.39,SSE,158,0.0,0.0,58,0.00,,,0.00,meteohub,2013-09-17 01:37:00,
2013-09-16 20:42:00,56.5,42.3,29.39,SSE,158,0.0,0.0,59,0.00,,,0.00,meteohub,2013-09-17 01:42:00,
2013-09-16 20:47:00,56.3,42.3,29.39,NE,45,0.0,-999.0,59,0.00,,,0.00,meteohub,2013-09-17 01:47:00,
2013-09-16 20:52:00,56.3,41.7,29.39,ENE,68,0.0,0.0,58,0.00,,,0.00,meteohub,2013-09-17 01:52:00,
2013-09-16 20:57:00,55.9,41.4,29.39,ENE,68,0.0,0.0,58,0.00,,,0.00,meteohub,2013-09-17 01:57:00,
2013-09-16 21:02:00,55.8,41.2,29.39,ENE,68,0.0,0.0,58,0.00,,,0.00,meteohub,2013-09-17 02:02:00,
2013-09-16 21:07:00,55.4,40.8,29.39,ENE,68,0.0,0.0,58,0.00,,,0.00,meteohub,2013-09-17 02:07:00,
2013-09-16 21:12:00,55.2,41.5,29.39,ENE,68,0.0,0.0,60,0.00,,,0.00,meteohub,2013-09-17 02:12:00,
2013-09-16 21:17:00,55.2,41.5,29.39,East,90,0.0,0.0,60,0.00,,,0.00,meteohub,2013-09-17 02:17:00,
2013-09-16 21:22:00,55.0,41.4,29.39,ENE,68,0.0,0.0,60,0.00,,,0.00,meteohub,2013-09-17 02:22:00,
2013-09-16 21:27:00,55.0,41.9,29.39,ENE,68,0.0,0.0,61,0.00,,,0.00,meteohub,2013-09-17 02:27:00,
2013-09-16 21:32:00,55.0,41.4,29.39,ENE,68,0.0,0.0,60,0.00,,,0.00,meteohub,2013-09-17 02:32:00,
2013-09-16 21:37:00,54.9,41.7,29.39,ENE,68,0.0,0.0,61,0.00,,,0.00,meteohub,2013-09-17 02:37:00,
2013-09-16 21:42:00,54.7,41.5,29.39,South,180,0.0,0.0,61,0.00,,,0.00,meteohub,2013-09-17 02:42:00,
2013-09-16 21:48:00,54.5,41.4,29.39,East,90,0.0,0.0,61,0.00,,,0.00,meteohub,2013-09-17 02:48:00,
2013-09-16 21:53:00,54.5,41.4,29.39,ENE,68,0.0,0.0,61,0.00,,,0.00,meteohub,2013-09-17 02:53:00,
2013-09-16 21:58:00,54.3,41.2,29.39,East,90,0.0,1.0,61,0.00,,,0.00,meteohub,2013-09-17 02:58:00,
2013-09-16 22:03:00,54.3,41.2,29.39,ENE,68,0.0,2.0,61,0.00,,,0.00,meteohub,2013-09-17 03:03:00,
2013-09-16 22:08:00,54.0,40.8,29.39,ENE,68,0.0,2.0,61,0.00,,,0.00,meteohub,2013-09-17 03:08:00,
2013-09-16 22:13:00,53.8,41.0,29.39,East,90,0.0,0.0,62,0.00,,,0.00,meteohub,2013-09-17 03:13:00,
2013-09-16 22:18:00,53.4,40.8,29.39,SE,135,0.0,0.0,62,0.00,,,0.00,meteohub,2013-09-17 03:18:00,
2013-09-16 22:24:00,53.4,41.2,29.36,SE,135,0.0,0.0,63,0.00,,,0.00,meteohub,2013-09-17 03:24:00,
2013-09-16 22:29:00,53.2,41.0,29.36,SSE,158,0.0,0.0,63,0.00,,,0.00,meteohub,2013-09-17 03:29:00,
2013-09-16 22:34:00,53.1,40.8,29.39,East,90,0.0,4.0,63,0.00,,,0.00,meteohub,2013-09-17 03:34:00,
2013-09-16 22:39:00,52.9,41.0,29.39,ENE,68,0.0,4.0,64,0.00,,,0.00,meteohub,2013-09-17 03:39:00,
2013-09-16 22:44:00,52.9,41.5,29.39,NE,45,0.0,4.0,65,0.00,,,0.00,meteohub,2013-09-17 03:44:00,
2013-09-16 22:49:00,52.7,41.4,29.39,ENE,68,0.0,2.0,65,0.00,,,0.00,meteohub,2013-09-17 03:49:00,
2013-09-16 22:55:00,52.7,41.7,29.39,SSE,158,2.0,2.0,66,0.00,,,0.00,meteohub,2013-09-17 03:55:00,
2013-09-16 22:59:00,52.5,41.5,29.39,SSE,158,1.0,2.0,66,0.00,,,0.00,meteohub,2013-09-17 03:59:00,
2013-09-16 23:01:00,52.5,41.5,29.39,SSE,158,0.0,3.0,66,0.00,,,0.00,meteohub,2013-09-17 04:01:00,
2013-09-16 23:02:00,52.3,41.4,29.39,SSE,158,0.0,3.0,66,0.00,,,0.00,meteohub,2013-09-17 04:02:00,
2013-09-16 23:07:00,52.5,41.5,29.39,SSE,158,0.0,3.0,66,0.00,,,0.00,meteohub,2013-09-17 04:07:00,
2013-09-16 23:12:00,52.5,41.9,29.39,SSE,158,0.0,3.0,67,0.00,,,0.00,meteohub,2013-09-17 04:12:00,
2013-09-16 23:17:00,52.3,41.7,29.39,South,180,0.0,5.0,67,0.00,,,0.00,meteohub,2013-09-17 04:17:00,
2013-09-16 23:22:00,52.2,41.5,29.39,SSE,158,0.0,5.0,67,0.00,,,0.00,meteohub,2013-09-17 04:22:00,
2013-09-16 23:28:00,52.2,41.5,29.39,South,180,2.0,5.0,67,0.00,,,0.00,meteohub,2013-09-17 04:28:00,
2013-09-16 23:33:00,52.2,41.5,29.39,South,180,0.0,2.0,67,0.00,,,0.00,meteohub,2013-09-17 04:33:00,
2013-09-16 23:38:00,52.2,41.5,29.36,South,180,0.0,3.0,67,0.00,,,0.00,meteohub,2013-09-17 04:38:00,
2013-09-16 23:43:00,52.2,41.5,29.36,SSE,158,2.0,3.0,67,0.00,,,0.00,meteohub,2013-09-17 04:43:00,
2013-09-16 23:48:00,52.0,41.4,29.36,SSW,202,0.0,3.0,67,0.00,,,0.00,meteohub,2013-09-17 04:48:00,
2013-09-16 23:54:00,52.0,41.4,29.36,SSE,158,0.0,3.0,67,0.00,,,0.00,meteohub,2013-09-17 04:54:00,
2013-09-16 23:59:00,52.0,41.7,29.36,South,180,2.0,3.0,68,0.00,,,0.00,meteohub,2013-09-17 04:59:00,